Weather History for Kendall, FL

Change the Weather History Date:

Monday, January 21, 2013

  Actual Average Record
Temperature  
Mean Temperature 72 °F -  
Max Temperature 80 °F 74 °F 84 °F (2002)
Min Temperature 63 °F 53 °F 36 °F (2009)
Cooling Degree Days 7    
Growing Degree Days 22 (Base 50)    
Moisture  
Dew Point 66 °F    
Average Humidity 81    
Maximum Humidity 97    
Minimum Humidity 61    
Precipitation  
Precipitation 0.20 in - - ()
Sea Level Pressure  
Sea Level Pressure 30.04 in    
Wind  
Wind Speed 3 mph (WSW)    
Max Wind Speed 14 mph    
Max Gust Speed -    
Visibility 10 miles    
Events Rain    
Averages and records for this station are not official NWS values.
T = Trace of Precipitation, MM = Missing Value Source: NWS Daily Summary

Daily Weather History Graph

Daily Weather History Graph

Search for Another Location

Airport:

Trip Planner

Search our weather history database for the weather conditions in past years. The results will help you decide how hot, cold, wet, or windy it might be!

Date:

Astronomy

Jan. 21, 2013 Rise Set
Actual Time 7:08 AM EST 5:57 PM EST
Civil Twilight 6:44 AM EST 6:22 PM EST
Nautical Twilight 6:16 AM EST 6:50 PM EST
Astronomical Twilight 5:48 AM EST 7:17 PM EST
Moon 1:38 PM EST (1/21) 2:34 AM EST (1/21)
Length of Visible Light 11h 37m
Length of Day
10h 48m
Waxing Gibbous, 75% of the Moon is Illuminated
Jan 21
Waxing Gibbous
Jan 26
Full
Feb 3
Last Quarter
Feb 10
New
Feb 17
First Quarter

Hourly Weather History & Observations

Time (EST) Temp. Heat Index Dew Point Humidity Pressure Visibility Wind Dir Wind Speed Gust Speed Precip Events Conditions
12:53 AM 68.0 °F - 66.9 °F 96% 30.05 in 10.0 mi Calm Calm - N/A   Mostly Cloudy
1:06 AM 68.0 °F - 66.2 °F 94% 30.05 in 10.0 mi NNW 3.5 mph - N/A   Overcast
1:53 AM 69.1 °F - 66.0 °F 90% 30.04 in 10.0 mi NNE 5.8 mph - N/A   Scattered Clouds
2:53 AM 68.0 °F - 66.0 °F 93% 30.03 in 10.0 mi Calm Calm - N/A   Mostly Cloudy
3:53 AM 69.1 °F - 66.9 °F 93% 30.03 in 10.0 mi Calm Calm - N/A   Overcast
4:53 AM 70.0 °F - 66.9 °F 90% 30.02 in 10.0 mi Calm Calm - N/A   Overcast
5:53 AM 68.0 °F - 66.9 °F 96% 30.02 in 10.0 mi Calm Calm - N/A   Overcast
6:05 AM 69.8 °F - 66.2 °F 88% 30.02 in 10.0 mi Calm Calm - N/A   Overcast
6:17 AM 68.0 °F - 66.2 °F 94% 30.03 in 10.0 mi Calm Calm - N/A   Overcast
6:27 AM 69.8 °F - 66.2 °F 88% 30.03 in 10.0 mi NNE 3.5 mph - N/A   Overcast
6:53 AM 69.8 °F - 66.2 °F 88% 30.04 in 10.0 mi North 3.5 mph - N/A   Overcast
7:53 AM 70.0 °F - 69.1 °F 97% 30.05 in 10.0 mi Calm Calm - N/A   Overcast
8:53 AM 75.0 °F - 68.0 °F 79% 30.07 in 10.0 mi East 4.6 mph - N/A   Mostly Cloudy
9:53 AM 78.1 °F - 66.9 °F 68% 30.08 in 10.0 mi ESE 5.8 mph - N/A   Partly Cloudy
10:38 AM 78.8 °F - 66.2 °F 65% 30.08 in 10.0 mi SSE 4.6 mph - N/A   Mostly Cloudy
10:53 AM 78.1 °F - 66.0 °F 66% 30.08 in 10.0 mi ESE 4.6 mph - N/A   Mostly Cloudy
11:37 AM 78.8 °F - 66.2 °F 65% 30.07 in 10.0 mi ESE 5.8 mph - N/A   Mostly Cloudy
11:53 AM 80.1 °F 82.3 °F 66.9 °F 64% 30.06 in 10.0 mi SSE 6.9 mph - N/A   Mostly Cloudy
12:02 PM 80.6 °F 82.7 °F 66.2 °F 61% 30.06 in 10.0 mi Variable 4.6 mph - N/A   Mostly Cloudy
12:09 PM 78.8 °F - 66.2 °F 65% 30.05 in 10.0 mi SE 5.8 mph - N/A   Mostly Cloudy
12:39 PM 78.8 °F - 66.2 °F 65% 30.04 in 10.0 mi SSE 6.9 mph - N/A   Mostly Cloudy
12:53 PM 80.1 °F 82.3 °F 66.9 °F 64% 30.03 in 10.0 mi SSE 4.6 mph - N/A   Overcast
1:53 PM 77.0 °F - 66.9 °F 71% 30.00 in 8.0 mi South 5.8 mph - 0.02 in Rain Light Rain
1:57 PM 75.2 °F - 66.2 °F 73% 30.00 in 1.8 mi WNW 3.5 mph - 0.07 in Rain Heavy Rain
2:10 PM 73.4 °F - 68.0 °F 83% 30.00 in 3.0 mi SW 4.6 mph - 0.18 in Rain Light Rain
2:53 PM 78.1 °F - 70.0 °F 76% 29.99 in 10.0 mi Variable 3.5 mph - 0.18 in   Mostly Cloudy
3:53 PM 80.1 °F 82.3 °F 66.9 °F 64% 29.99 in 10.0 mi WSW 9.2 mph - N/A   Scattered Clouds
4:53 PM 77.0 °F - 66.9 °F 71% 29.99 in 10.0 mi West 13.8 mph - N/A   Scattered Clouds
5:53 PM 73.0 °F - 66.0 °F 79% 30.01 in 10.0 mi West 9.2 mph - N/A   Mostly Cloudy
6:53 PM 70.0 °F - 64.9 °F 84% 30.03 in 10.0 mi West 11.5 mph - N/A   Clear
7:53 PM 68.0 °F - 64.9 °F 90% 30.04 in 10.0 mi West 6.9 mph - N/A   Clear
8:53 PM 66.9 °F - 64.9 °F 93% 30.05 in 10.0 mi West 8.1 mph - N/A   Clear
9:53 PM 66.0 °F - 64.0 °F 93% 30.05 in 10.0 mi WNW 8.1 mph - N/A   Clear
10:53 PM 64.9 °F - 63.0 °F 93% 30.05 in 10.0 mi WNW 8.1 mph - N/A   Scattered Clouds
11:53 PM 63.0 °F - 62.1 °F 97% 30.05 in 10.0 mi WNW 5.8 mph - N/A   Clear